CW7769 Weather Reports


time (UTC)temp
C
wind
direction
speed
KPH
gust
KPH
rain 1hr
cm
rain 24hr
cm
rain mn
cm
humidity
%
barometer
mb
20260905073745 21 281 1.6 11.3 0.00 0.08 0.08 60 1022.1
20260905072741 20 201 0.0 0.0 0.00 0.08 0.08 64 1022.0
20260905071802 20 201 0.0 0.0 0.00 0.08 0.08 65 1021.7
20260905070744 20 201 0.0 0.0 0.00 0.08 0.08 68 1021.7
20260905063444 17 201 0.0 0.0 0.00 0.08 0.08 71 1021.3
20260905062412 17 201 0.0 0.0 0.00 0.08 0.08 71 1021.2
20260905061407 17 201 0.0 0.0 0.00 0.08 0.08 71 1021.0
20260905060336 17 201 0.0 0.0 0.00 0.08 0.08 71 1020.9
20260905055314 17 194 0.0 0.0 0.00 0.08 0.08 71 1020.8
20260905054322 17 192 1.6 9.7 0.00 0.08 0.08 70 1020.7
20260905053321 16 178 1.6 8.0 0.00 0.08 0.08 70 1020.5
20260905052331 16 175 1.6 6.4 0.00 0.08 0.08 70 1020.5
20260905051354 16 192 1.6 11.3 0.00 0.08 0.08 69 1020.4
20260905050337 16 175 1.6 11.3 0.00 0.08 0.08 69 1020.3
20260905045312 16 196 3.2 9.7 0.00 0.08 0.08 69 1020.0
20260905044327 16 201 3.2 9.7 0.00 0.08 0.08 68 1019.9
20260905043333 16 200 4.8 9.7 0.00 0.08 0.08 68 1019.8
20260905042327 16 201 4.8 11.3 0.00 0.08 0.08 68 1019.8
20260905041311 16 190 4.8 12.9 0.00 0.08 0.08 68 1019.7
20260905040315 16 178 1.6 12.9 0.00 0.08 0.08 69 1019.6
20260905035306 17 224 1.6 6.4 0.00 0.08 0.08 70 1019.5
20260905034248 17 183 1.6 6.4 0.00 0.08 0.08 70 1019.2
20260905033219 17 181 0.0 4.8 0.00 0.08 0.08 71 1019.1
20260905032152 17 178 1.6 6.4 0.00 0.08 0.08 71 1019.0
20260905031126 17 171 1.6 6.4 0.00 0.08 0.08 71 1019.1
20260905024956 18 144 0.0 0.0 0.00 0.08 0.08 71 1019.0
20260905022829 18 144 0.0 0.0 0.00 0.08 0.08 70 1018.9
20260905021845 18 144 0.0 0.0 0.00 0.08 0.08 69 1018.9
20260905020849 18 144 0.0 0.0 0.00 0.08 0.08 69 1018.8
20260905014811 19 144 0.0 0.0 0.00 0.08 0.08 68 1018.9
20260905012638 20 144 0.0 0.0 0.08 0.08 0.08 67 1018.8
20260905011659 20 144 0.0 0.0 0.08 0.08 0.08 66 1018.8
20260905010657 20 178 0.0 6.4 0.08 0.05 0.08 64 1018.5
20260905004617 20 51 0.0 1.6 0.00 0.00 0.00 62 1018.4
20260905003642 20 82 0.0 0.0 0.00 0.00 0.00 62 1018.2
20260905001545 20 82 0.0 0.0 0.00 0.00 0.00 61 1018.1
20260904235408 21 57 0.0 1.6 0.00 0.00 0.00 58 1017.7
20260904234337 21 44 0.0 0.0 0.00 0.00 0.00 57 1017.6
20260904232223 21 52 0.0 6.4 0.00 0.00 0.00 56 1017.3
20260904231213 21 46 0.0 3.2 0.00 0.00 0.00 56 1017.3
20260904230230 22 53 0.0 0.0 0.00 0.00 0.00 57 1017.0
20260904225242 22 67 0.0 1.6 0.00 0.00 0.00 56 1017.1
20260904223146 22 27 0.0 6.4 0.00 0.00 0.00 55 1017.0
20260904222136 22 22 0.0 12.9 0.00 0.00 0.00 54 1016.9
20260904221138 23 40 1.6 22.5 0.00 0.00 0.00 52 1016.7
20260904220202 23 22 4.8 22.5 0.00 0.00 0.00 49 1016.6
20260904214055 25 276 1.6 12.9 0.00 0.00 0.00 47 1016.1
20260904213118 25 292 1.6 12.9 0.00 0.00 0.00 47 1016.0
20260904212141 25 331 1.6 12.9 0.00 0.00 0.00 47 1015.9
20260904211153 25 266 1.6 12.9 0.00 0.00 0.00 46 1015.8
20260904210140 25 276 0.0 6.4 0.00 0.00 0.00 45 1015.6
20260904205116 25 298 0.0 6.4 0.00 0.00 0.00 44 1015.5
20260904204134 26 232 0.0 0.0 0.00 0.00 0.00 42 1015.4
20260904203157 26 232 0.0 0.0 0.00 0.00 0.00 41 1015.1
20260904202130 26 232 0.0 0.0 0.00 0.00 0.00 41 1015.0
20260904201152 26 232 0.0 0.0 0.00 0.00 0.00 40 1014.9
20260904200214 26 232 0.0 1.6 0.00 0.00 0.00 40 1014.7
20260904195208 27 235 1.6 8.0 0.00 0.00 0.00 39 1014.6
20260904194140 27 240 0.0 4.8 0.00 0.00 0.00 39 1014.6
20260904193118 27 226 1.6 0.0 0.00 0.00 0.00 38 1014.5
20260904191005 27 273 1.6 11.3 0.00 0.00 0.00 38 1014.3
20260904185938 27 205 1.6 6.4 0.00 0.00 0.00 38 1014.2
20260904185002 27 209 1.6 8.0 0.00 0.00 0.00 38 1014.1
20260904183929 28 286 0.0 8.0 0.00 0.00 0.00 37 1014.1
20260904182916 28 248 1.6 3.2 0.00 0.00 0.00 36 1014.1
20260904181931 28 277 0.0 0.0 0.00 0.00 0.00 36 1014.0
20260904180909 29 283 1.6 0.0 0.00 0.00 0.00 35 1013.9
20260904175840 29 269 3.2 20.9 0.00 0.00 0.00 34 1013.9
20260904174832 29 285 4.8 20.9 0.00 0.00 0.00 33 1013.8
20260904173835 30 265 4.8 19.3 0.00 0.00 0.00 33 1013.7
20260904172803 30 267 6.4 29.0 0.00 0.00 0.00 32 1013.7
20260904171815 30 306 9.7 29.0 0.00 0.00 0.00 32 1013.6
20260904170800 30 282 11.3 27.4 0.00 0.00 0.00 32 1013.6
20260904164659 30 215 9.7 27.4 0.00 0.00 0.00 31 1013.5
20260904163715 30 259 9.7 27.4 0.00 0.00 0.00 30 1013.5
20260904162721 31 245 6.4 24.1 0.00 0.00 0.00 30 1013.5
20260904161708 31 261 8.0 40.2 0.00 0.00 0.00 29 1013.5
20260904160641 31 259 9.7 40.2 0.00 0.00 0.00 28 1013.6
20260904155637 31 280 14.5 37.0 0.00 0.00 0.00 28 1013.5
20260904154655 31 278 8.0 29.0 0.00 0.00 0.00 28 1013.5
20260904153708 31 240 12.9 33.8 0.00 0.00 0.00 28 1013.4
20260904151539 32 255 14.5 35.4 0.00 0.00 0.00 27 1013.4
20260904150523 32 278 9.7 35.4 0.00 0.00 0.00 28 1013.2
20260904145517 32 200 6.4 35.4 0.00 0.00 0.00 28 1013.3
20260904144518 32 267 12.9 35.4 0.00 0.00 0.00 28 1013.4
20260904143538 32 285 11.3 30.6 0.00 0.00 0.00 28 1013.4
20260904142529 32 266 12.9 38.6 0.00 0.00 0.00 28 1013.4
20260904141457 32 281 9.7 38.6 0.00 0.00 0.00 28 1013.6
20260904140440 32 270 8.0 30.6 0.00 0.00 0.00 28 1013.6
20260904134304 32 268 9.7 27.4 0.00 0.00 0.00 28 1013.8
20260904133256 32 205 12.9 41.8 0.00 0.00 0.00 29 1013.9
20260904132249 32 244 14.5 41.8 0.00 0.00 0.00 28 1014.1
20260904131229 32 275 6.4 25.7 0.00 0.00 0.00 28 1014.1
20260904130254 32 273 9.7 27.4 0.00 0.00 0.00 28 1014.2
20260904124151 32 247 12.9 35.4 0.00 0.00 0.00 29 1014.3
20260904122014 31 261 9.7 32.2 0.00 0.00 0.00 29 1014.6
20260904121005 31 207 9.7 32.2 0.00 0.00 0.00 31 1014.9
20260904114856 31 303 9.7 27.4 0.00 0.00 0.00 32 1015.0
20260904112741 31 298 8.0 37.0 0.00 0.00 0.00 32 1015.4
20260904111715 30 247 8.0 30.6 0.00 0.00 0.00 34 1015.7
20260904110734 30 281 11.3 33.8 0.00 0.00 0.00 35 1015.8
20260904105731 30 264 9.7 33.8 0.00 0.00 0.00 35 1015.8
20260904104724 29 167 9.7 30.6 0.00 0.00 0.00 36 1015.9
20260904103656 29 167 3.2 24.1 0.00 0.00 0.00 38 1016.0
20260904102655 29 288 6.4 20.9 0.00 0.00 0.00 38 1016.2
20260904101704 29 172 9.7 27.4 0.00 0.00 0.00 38 1016.4
20260904094500 28 180 8.0 24.1 0.00 0.00 0.00 39 1016.9
20260904092425 27 165 9.7 25.7 0.00 0.00 0.00 42 1017.1
20260904090306 27 190 6.4 17.7 0.00 0.00 0.00 42 1017.6
20260904085241 27 202 6.4 17.7 0.00 0.00 0.00 43 1017.7
20260904084252 27 210 4.8 16.1 0.00 0.00 0.00 43 1017.8
20260904083313 26 230 6.4 16.1 0.00 0.00 0.00 45 1017.9
20260904082241 26 174 4.8 12.9 0.00 0.00 0.00 44 1017.9
20260904074940 24 279 4.8 12.9 0.00 0.00 0.00 47 1018.1